METEOR 2-11 DEB, 40703

Orbit data source: Space-Track

METEOR 2-11 DEB, 40703 is space debris in LEO originally from a launch on Thu, 05 Jul 1984 UTC launched from the Plesetsk Missile And Space Complex (PKMTR). Debris objects in space refer to the collection of defunct objects orbiting the Earth. Examples of debris include non-operational satellites, rocket bodies, and fragments generated from explosions, collisions, or faulty payload assembly.

Loading next visibility...
Identifier
40703, 1984-072E
Orbit
LEO
Last TLE update
5 days ago
Origin
Manufacturer
Unknown
Mission
Spacecraft
Bus & Motor
Unknown
Mass
Unknown
Launch date (UTC)
1984-07-05 (41 years ago)
Launch vehicle
Unknown
Launch site
Plesetsk Missile And Space Complex (PKMTR)
Object type
Payload
Rocket body
Debris
Shape & HBR
Unknown
Radar Cross Section
Small (<0.1 m²)

Expand to show TLE details & history

TLE from 5 days ago
0 METEOR 2-11 DEB
1 40703U 84072E   25179.04262632  .00001976  00000-0  14439-2 0  9990
2 40703  82.5095 297.1235 0001375 191.0384 169.0753 13.95547853519844
Epoch: 2025-06-28T01:01Z
TLE epoch observation values (Epoch: 2025-06-28T01:01:22.914Z)
Latitude
0.00005°
Longitude
5.39122°
Altitude
913.154 km
Speed
7.395 km/s
True Right ascension
19h 48m 29s
True Declination
0° 00' 00"
Sunlit
Object was in full shadow at epoch
Visualization orbit readout
Latitude
-73.71595°
Longitude
-25.33742°
Altitude
936.507 km
Speed
7.383 km/s
Apparent Right ascension
01h 01m 31s
Apparent Declination
-70° 55' 45"
Sunlit
Object is in full shadow
Visualization observer readout
Local Sidereal Time
14:35:05
Azimuth
166.309° S
Elevation
-56.768°
Doppler factor
1
Orbital elements
Apogee altitude
907.392 km
Perigee altitude
905.389 km
Semi-major axis
7,284.528 km
Eccentricity
0.00014
Inclination
82.5095°
RAAN
297.1235°
Arg. of periapsis
191.0384°
True anomaly
Unknown
Mean anomaly
169.0753°
Eccentric anomaly
Unknown
Mean motion
3.49093 °/min
Orbital period
103.12 mins
BSTAR
0.0014439
Loading maneuver chart data...
Loading SW <> Apogee altitude chart data...
Loading historical data...
Loading historical data...
Loading historical data...
Loading historical data...
Loading historical data...
Loading historical data...
Loading historical data...

METEOR 2-11 DEB Visibility forecast

Observer location: undefined°, undefined°

Span
Click to sort rows by Start time (UTC) header in descending order
Start Az.
Max El. time (UTC)
Max El. Az.
Max El.
End time (UTC)
End Az.
7 mins2025-07-03 06:46:00.250Z123.348° SE2025-07-03 06:50:00.250Z79.226° E17.321°2025-07-03 06:53:00.250Z46.448° ENE
9 mins2025-07-03 08:29:00.250Z206.202° SW2025-07-03 08:33:00.250Z275.696° WNW40.461°2025-07-03 08:38:00.250Z357.43° N
9 mins2025-07-03 19:17:00.250Z350.067° N2025-07-03 19:21:00.250Z236.884° WSW44.782°2025-07-03 19:26:00.250Z177.214° S
|